owner,sensor,date,latitude,longitude,vertical_datum,mass_concentration_of_oxygen_in_sea_water,qcFlag 
SCCF RECON,ioos:station:SCCF:51:1,2008-10-01T00:00:00Z,26.5545,-82.1715,1.83,5.02,1111122 
SCCF RECON,ioos:station:SCCF:51:1,2008-10-01T01:00:00Z,26.5545,-82.1715,1.86,5.52,1111122 
SCCF RECON,ioos:station:SCCF:51:1,2008-10-01T02:00:00Z,26.5545,-82.1715,1.93,5.37,1111122 
SCCF RECON,ioos:station:SCCF:51:1,2008-10-01T03:00:00Z,26.5545,-82.1715,2.047,4.84,1111122 
SCCF RECON,ioos:station:SCCF:51:1,2008-10-01T04:00:00Z,26.5545,-82.1715,2.19,4.31,1111122 
SCCF RECON,ioos:station:SCCF:51:1,2008-10-01T05:00:00Z,26.5545,-82.1715,2.26,4.41,1111122 
SCCF RECON,ioos:station:SCCF:51:1,2008-10-01T06:00:00Z,26.5545,-82.1715,2.257,4.41,1111122 
SCCF RECON,ioos:station:SCCF:51:1,2008-10-01T07:00:00Z,26.5545,-82.1715,2.19,4.33,1111122 
SCCF RECON,ioos:station:SCCF:51:1,2008-10-01T08:00:00Z,26.5545,-82.1715,2.1,3.81,1111122 
SCCF RECON,ioos:station:SCCF:51:1,2008-10-01T09:00:00Z,26.5545,-82.1715,1.992,5.02,1111122 
SCCF RECON,ioos:station:SCCF:51:1,2008-10-01T10:00:00Z,26.5545,-82.1715,1.87,4.39,1111122 
SCCF RECON,ioos:station:SCCF:51:1,2008-10-01T11:00:00Z,26.5545,-82.1715,1.75,4.29,1111122 
SCCF RECON,ioos:station:SCCF:51:1,2008-10-01T12:00:00Z,26.5545,-82.1715,1.65,3.77,1111122 
SCCF RECON,ioos:station:SCCF:51:1,2008-10-01T13:00:00Z,26.5545,-82.1715,1.587,4.15,1111122 
SCCF RECON,ioos:station:SCCF:51:1,2008-10-01T14:00:00Z,26.5545,-82.1715,1.601,4.04,1111122 
SCCF RECON,ioos:station:SCCF:51:1,2008-10-01T15:00:00Z,26.5545,-82.1715,1.687,5.26,1111122 
SCCF RECON,ioos:station:SCCF:51:1,2008-10-01T16:00:00Z,26.5545,-82.1715,1.807,4.47,1111122 
SCCF RECON,ioos:station:SCCF:51:1,2008-10-01T17:00:00Z,26.5545,-82.1715,1.94,4.9,1111122 
SCCF RECON,ioos:station:SCCF:51:1,2008-10-01T18:00:00Z,26.5545,-82.1715,2.019,4.65,1111122 
SCCF RECON,ioos:station:SCCF:51:1,2008-10-01T19:00:00Z,26.5545,-82.1715,2.053,5.26,1111122 
SCCF RECON,ioos:station:SCCF:51:1,2008-10-01T20:00:00Z,26.5545,-82.1715,2.046,4.78,1111122 
SCCF RECON,ioos:station:SCCF:51:1,2008-10-01T21:00:00Z,26.5545,-82.1715,2.007,4.93,1111122 
SCCF RECON,ioos:station:SCCF:51:1,2008-10-01T22:00:00Z,26.5545,-82.1715,1.953,7.6,1111122 
SCCF RECON,ioos:station:SCCF:51:1,2008-10-01T23:00:00Z,26.5545,-82.1715,1.899,7.88,1111122 
SCCF RECON,ioos:station:SCCF:51:1,2008-10-02T00:00:00Z,26.5545,-82.1715,1.867,7.71,1111122 
SCCF RECON,ioos:station:SCCF:51:1,2008-10-02T01:00:00Z,26.5545,-82.1715,1.876,7.63,1111122 
SCCF RECON,ioos:station:SCCF:51:1,2008-10-02T02:00:00Z,26.5545,-82.1715,1.93,7.11,1111122 
SCCF RECON,ioos:station:SCCF:51:1,2008-10-02T03:00:00Z,26.5545,-82.1715,2.001,5.27,1111122 
SCCF RECON,ioos:station:SCCF:51:1,2008-10-02T04:00:00Z,26.5545,-82.1715,2.091,6.45,1111122 
SCCF RECON,ioos:station:SCCF:51:1,2008-10-02T05:00:00Z,26.5545,-82.1715,2.189,5.97,1111122 
SCCF RECON,ioos:station:SCCF:51:1,2008-10-02T06:00:00Z,26.5545,-82.1715,2.244,5.27,1111122 
SCCF RECON,ioos:station:SCCF:51:1,2008-10-02T07:00:00Z,26.5545,-82.1715,2.229,5.14,1111122 
SCCF RECON,ioos:station:SCCF:51:1,2008-10-02T08:00:00Z,26.5545,-82.1715,2.164,5.6,1111122 
SCCF RECON,ioos:station:SCCF:51:1,2008-10-02T09:00:00Z,26.5545,-82.1715,2.057,5.7,1111122 
SCCF RECON,ioos:station:SCCF:51:1,2008-10-02T10:00:00Z,26.5545,-82.1715,1.943,5.12,1111122 
SCCF RECON,ioos:station:SCCF:51:1,2008-10-02T11:00:00Z,26.5545,-82.1715,1.818,4.74,1111122 
SCCF RECON,ioos:station:SCCF:51:1,2008-10-02T12:00:00Z,26.5545,-82.1715,1.702,5.43,1111122 
SCCF RECON,ioos:station:SCCF:51:1,2008-10-02T13:00:00Z,26.5545,-82.1715,1.607,5.98,1111122 
SCCF RECON,ioos:station:SCCF:51:1,2008-10-02T14:00:00Z,26.5545,-82.1715,1.551,5.48,1111122 
SCCF RECON,ioos:station:SCCF:51:1,2008-10-02T15:00:00Z,26.5545,-82.1715,1.578,6.55,1111122 
SCCF RECON,ioos:station:SCCF:51:1,2008-10-02T16:00:00Z,26.5545,-82.1715,1.66,7.35,1111122 
SCCF RECON,ioos:station:SCCF:51:1,2008-10-02T17:00:00Z,26.5545,-82.1715,1.773,6.8,1111122 
SCCF RECON,ioos:station:SCCF:51:1,2008-10-02T18:00:00Z,26.5545,-82.1715,1.894,6.64,1111122 
SCCF RECON,ioos:station:SCCF:51:1,2008-10-02T19:00:00Z,26.5545,-82.1715,1.962,6.9,1111122 
SCCF RECON,ioos:station:SCCF:51:1,2008-10-02T20:00:00Z,26.5545,-82.1715,1.972,7.31,1111122 
SCCF RECON,ioos:station:SCCF:51:1,2008-10-02T21:00:00Z,26.5545,-82.1715,1.946,6.79,1111122 
SCCF RECON,ioos:station:SCCF:51:1,2008-10-02T22:00:00Z,26.5545,-82.1715,1.909,7.61,1111122 
SCCF RECON,ioos:station:SCCF:51:1,2008-10-02T23:00:00Z,26.5545,-82.1715,1.88,8.89,1111122 
SCCF RECON,ioos:station:SCCF:51:1,2008-10-03T00:00:00Z,26.5545,-82.1715,1.861,7.36,1111122 
SCCF RECON,ioos:station:SCCF:51:1,2008-10-03T01:00:00Z,26.5545,-82.1715,1.873,7.5,1111122 
SCCF RECON,ioos:station:SCCF:51:1,2008-10-03T02:00:00Z,26.5545,-82.1715,1.922,7.15,1111122 
SCCF RECON,ioos:station:SCCF:51:1,2008-10-03T03:00:00Z,26.5545,-82.1715,1.988,7.71,1111122 
SCCF RECON,ioos:station:SCCF:51:1,2008-10-03T04:00:00Z,26.5545,-82.1715,2.06,7.65,1111122 
SCCF RECON,ioos:station:SCCF:51:1,2008-10-03T05:00:00Z,26.5545,-82.1715,2.136,6.1,1111122 
SCCF RECON,ioos:station:SCCF:51:1,2008-10-03T06:00:00Z,26.5545,-82.1715,2.193,6.04,1111122 
SCCF RECON,ioos:station:SCCF:51:1,2008-10-03T07:00:00Z,26.5545,-82.1715,2.207,5.28,1111122 
SCCF RECON,ioos:station:SCCF:51:1,2008-10-03T08:00:00Z,26.5545,-82.1715,2.163,5.33,1111122 
SCCF RECON,ioos:station:SCCF:51:1,2008-10-03T09:00:00Z,26.5545,-82.1715,2.094,5.56,1111122 
SCCF RECON,ioos:station:SCCF:51:1,2008-10-03T10:00:00Z,26.5545,-82.1715,1.992,6.21,1111122 
SCCF RECON,ioos:station:SCCF:51:1,2008-10-03T11:00:00Z,26.5545,-82.1715,1.877,6.03,1111122 
SCCF RECON,ioos:station:SCCF:51:1,2008-10-03T12:00:00Z,26.5545,-82.1715,1.767,5.91,1111122 
SCCF RECON,ioos:station:SCCF:51:1,2008-10-03T13:00:00Z,26.5545,-82.1715,1.659,5.85,1111122 
SCCF RECON,ioos:station:SCCF:51:1,2008-10-03T14:00:00Z,26.5545,-82.1715,1.58,6.91,1111122 
SCCF RECON,ioos:station:SCCF:51:1,2008-10-03T15:00:00Z,26.5545,-82.1715,1.556,6.91,1111122 
SCCF RECON,ioos:station:SCCF:51:1,2008-10-03T16:00:00Z,26.5545,-82.1715,1.602,7.51,1111122 
SCCF RECON,ioos:station:SCCF:51:1,2008-10-03T17:00:00Z,26.5545,-82.1715,1.687,8.09,1111122 
SCCF RECON,ioos:station:SCCF:51:1,2008-10-03T18:00:00Z,26.5545,-82.1715,1.793,7.0,1111122 
SCCF RECON,ioos:station:SCCF:51:1,2008-10-03T19:00:00Z,26.5545,-82.1715,1.891,6.84,1111122 
SCCF RECON,ioos:station:SCCF:51:1,2008-10-03T20:00:00Z,26.5545,-82.1715,1.944,7.06,1111122 
SCCF RECON,ioos:station:SCCF:51:1,2008-10-03T21:00:00Z,26.5545,-82.1715,1.959,7.29,1111122 
SCCF RECON,ioos:station:SCCF:51:1,2008-10-03T22:00:00Z,26.5545,-82.1715,1.943,7.05,1111122 
SCCF RECON,ioos:station:SCCF:51:1,2008-10-03T23:00:00Z,26.5545,-82.1715,1.92,8.06,1111122 
SCCF RECON,ioos:station:SCCF:51:1,2008-10-04T00:00:00Z,26.5545,-82.1715,1.9,7.38,1111122 
SCCF RECON,ioos:station:SCCF:51:1,2008-10-04T01:00:00Z,26.5545,-82.1715,1.901,7.95,1111122 
SCCF RECON,ioos:station:SCCF:51:1,2008-10-04T02:00:00Z,26.5545,-82.1715,1.941,7.78,1111122 
SCCF RECON,ioos:station:SCCF:51:1,2008-10-04T03:00:00Z,26.5545,-82.1715,1.993,7.61,1111122 
SCCF RECON,ioos:station:SCCF:51:1,2008-10-04T04:00:00Z,26.5545,-82.1715,2.05,7.51,1111122 
SCCF RECON,ioos:station:SCCF:51:1,2008-10-04T05:00:00Z,26.5545,-82.1715,2.1,6.41,1111122 
SCCF RECON,ioos:station:SCCF:51:1,2008-10-04T06:00:00Z,26.5545,-82.1715,2.14,6.12,1111122 
SCCF RECON,ioos:station:SCCF:51:1,2008-10-04T07:00:00Z,26.5545,-82.1715,2.15,5.46,1111122 
SCCF RECON,ioos:station:SCCF:51:1,2008-10-04T08:00:00Z,26.5545,-82.1715,2.11,6.2,1111122 
SCCF RECON,ioos:station:SCCF:51:1,2008-10-04T09:00:00Z,26.5545,-82.1715,2.042,6.34,1111122 
SCCF RECON,ioos:station:SCCF:51:1,2008-10-04T10:00:00Z,26.5545,-82.1715,1.97,6.35,1111122 
SCCF RECON,ioos:station:SCCF:51:1,2008-10-04T11:00:00Z,26.5545,-82.1715,1.895,6.07,1111122 
SCCF RECON,ioos:station:SCCF:51:1,2008-10-04T12:00:00Z,26.5545,-82.1715,1.798,5.93,1111122 
SCCF RECON,ioos:station:SCCF:51:1,2008-10-04T13:00:00Z,26.5545,-82.1715,1.691,6.04,1111122 
SCCF RECON,ioos:station:SCCF:51:1,2008-10-04T14:00:00Z,26.5545,-82.1715,1.591,6.13,1111122 
SCCF RECON,ioos:station:SCCF:51:1,2008-10-04T15:00:00Z,26.5545,-82.1715,1.516,6.16,1111122 
SCCF RECON,ioos:station:SCCF:51:1,2008-10-04T16:00:00Z,26.5545,-82.1715,1.507,5.84,1111122 
SCCF RECON,ioos:station:SCCF:51:1,2008-10-04T17:00:00Z,26.5545,-82.1715,1.564,6.34,1111122 
SCCF RECON,ioos:station:SCCF:51:1,2008-10-04T18:00:00Z,26.5545,-82.1715,1.641,6.76,1111122 
SCCF RECON,ioos:station:SCCF:51:1,2008-10-04T19:00:00Z,26.5545,-82.1715,1.742,5.7,1111122 
SCCF RECON,ioos:station:SCCF:51:1,2008-10-04T20:00:00Z,26.5545,-82.1715,1.811,5.55,1111122 
SCCF RECON,ioos:station:SCCF:51:1,2008-10-04T21:00:00Z,26.5545,-82.1715,1.873,6.07,1111122 
SCCF RECON,ioos:station:SCCF:51:1,2008-10-04T22:00:00Z,26.5545,-82.1715,1.86,5.86,1111122 
SCCF RECON,ioos:station:SCCF:51:1,2008-10-04T23:00:00Z,26.5545,-82.1715,1.83,5.93,1111122 
SCCF RECON,ioos:station:SCCF:51:1,2008-10-05T00:00:00Z,26.5545,-82.1715,1.807,6.0,1111122 
SCCF RECON,ioos:station:SCCF:51:1,2008-10-05T01:00:00Z,26.5545,-82.1715,1.832,5.66,1111122 
SCCF RECON,ioos:station:SCCF:51:1,2008-10-05T02:00:00Z,26.5545,-82.1715,1.856,5.42,1111122 
SCCF RECON,ioos:station:SCCF:51:1,2008-10-05T03:00:00Z,26.5545,-82.1715,1.923,5.25,1111122 
SCCF RECON,ioos:station:SCCF:51:1,2008-10-05T04:00:00Z,26.5545,-82.1715,1.977,5.62,1111122 
SCCF RECON,ioos:station:SCCF:51:1,2008-10-05T05:00:00Z,26.5545,-82.1715,2.017,5.53,1111122 
SCCF RECON,ioos:station:SCCF:51:1,2008-10-05T06:00:00Z,26.5545,-82.1715,2.087,5.51,1111122 
SCCF RECON,ioos:station:SCCF:51:1,2008-10-05T07:00:00Z,26.5545,-82.1715,2.116,4.87,1111122 
SCCF RECON,ioos:station:SCCF:51:1,2008-10-05T08:00:00Z,26.5545,-82.1715,2.115,5.12,1111122 
SCCF RECON,ioos:station:SCCF:51:1,2008-10-05T09:00:00Z,26.5545,-82.1715,2.109,5.4,1111122 
SCCF RECON,ioos:station:SCCF:51:1,2008-10-05T10:00:00Z,26.5545,-82.1715,2.074,5.3,1111122 
SCCF RECON,ioos:station:SCCF:51:1,2008-10-05T11:00:00Z,26.5545,-82.1715,1.0,-9999.0,1111122 
SCCF RECON,ioos:station:SCCF:51:1,2008-10-05T12:00:00Z,26.5545,-82.1715,1.943,5.25,1111122 
SCCF RECON,ioos:station:SCCF:51:1,2008-10-05T13:00:00Z,26.5545,-82.1715,1.844,4.98,1111122 
SCCF RECON,ioos:station:SCCF:51:1,2008-10-05T14:00:00Z,26.5545,-82.1715,1.747,5.16,1111122 
SCCF RECON,ioos:station:SCCF:51:1,2008-10-05T15:00:00Z,26.5545,-82.1715,1.655,5.73,1111122 
SCCF RECON,ioos:station:SCCF:51:1,2008-10-05T16:00:00Z,26.5545,-82.1715,1.591,6.28,1111122 
SCCF RECON,ioos:station:SCCF:51:1,2008-10-05T17:00:00Z,26.5545,-82.1715,1.585,6.69,1111122 
SCCF RECON,ioos:station:SCCF:51:1,2008-10-05T18:00:00Z,26.5545,-82.1715,1.619,7.57,1111122 
SCCF RECON,ioos:station:SCCF:51:1,2008-10-05T19:00:00Z,26.5545,-82.1715,1.69,7.96,1111122 
SCCF RECON,ioos:station:SCCF:51:1,2008-10-05T20:00:00Z,26.5545,-82.1715,1.771,6.44,1111122 
SCCF RECON,ioos:station:SCCF:51:1,2008-10-05T21:00:00Z,26.5545,-82.1715,1.844,6.5,1111122 
SCCF RECON,ioos:station:SCCF:51:1,2008-10-05T22:00:00Z,26.5545,-82.1715,1.881,6.37,1111122 
SCCF RECON,ioos:station:SCCF:51:1,2008-10-05T23:00:00Z,26.5545,-82.1715,1.912,6.96,1111122 
SCCF RECON,ioos:station:SCCF:51:1,2008-10-06T00:00:00Z,26.5545,-82.1715,1.928,6.9,1111122 
SCCF RECON,ioos:station:SCCF:51:1,2008-10-06T01:00:00Z,26.5545,-82.1715,1.931,5.55,1111122 
SCCF RECON,ioos:station:SCCF:51:1,2008-10-06T02:00:00Z,26.5545,-82.1715,1.92,6.85,1111122 
SCCF RECON,ioos:station:SCCF:51:1,2008-10-06T03:00:00Z,26.5545,-82.1715,1.925,6.06,1111122 
SCCF RECON,ioos:station:SCCF:51:1,2008-10-06T04:00:00Z,26.5545,-82.1715,1.939,7.09,1111122 
SCCF RECON,ioos:station:SCCF:51:1,2008-10-06T05:00:00Z,26.5545,-82.1715,1.971,6.88,1111122 
SCCF RECON,ioos:station:SCCF:51:1,2008-10-06T06:00:00Z,26.5545,-82.1715,2.015,6.85,1111122 
SCCF RECON,ioos:station:SCCF:51:1,2008-10-06T07:00:00Z,26.5545,-82.1715,2.064,6.77,1111122 
SCCF RECON,ioos:station:SCCF:51:1,2008-10-06T08:00:00Z,26.5545,-82.1715,2.105,5.41,1111122 
SCCF RECON,ioos:station:SCCF:51:1,2008-10-06T09:00:00Z,26.5545,-82.1715,2.111,5.53,1111122 
SCCF RECON,ioos:station:SCCF:51:1,2008-10-06T10:00:00Z,26.5545,-82.1715,2.07,5.4,1111122 
SCCF RECON,ioos:station:SCCF:51:1,2008-10-06T11:00:00Z,26.5545,-82.1715,2.002,6.13,1111122 
SCCF RECON,ioos:station:SCCF:51:1,2008-10-06T12:00:00Z,26.5545,-82.1715,1.941,5.89,1111122 
SCCF RECON,ioos:station:SCCF:51:1,2008-10-06T13:00:00Z,26.5545,-82.1715,1.87,6.22,1111122 
SCCF RECON,ioos:station:SCCF:51:1,2008-10-06T14:00:00Z,26.5545,-82.1715,1.809,6.35,1111122 
SCCF RECON,ioos:station:SCCF:51:1,2008-10-06T15:00:00Z,26.5545,-82.1715,1.739,6.43,1111122 
SCCF RECON,ioos:station:SCCF:51:1,2008-10-06T16:00:00Z,26.5545,-82.1715,1.687,6.48,1111122 
SCCF RECON,ioos:station:SCCF:51:1,2008-10-06T17:00:00Z,26.5545,-82.1715,1.65,6.97,1111122 
SCCF RECON,ioos:station:SCCF:51:1,2008-10-06T18:00:00Z,26.5545,-82.1715,1.64,7.25,1111122 
SCCF RECON,ioos:station:SCCF:51:1,2008-10-06T19:00:00Z,26.5545,-82.1715,1.683,7.54,1111122 
SCCF RECON,ioos:station:SCCF:51:1,2008-10-06T20:00:00Z,26.5545,-82.1715,1.741,7.83,1111122 
SCCF RECON,ioos:station:SCCF:51:1,2008-10-06T21:00:00Z,26.5545,-82.1715,1.822,6.55,1111122 
SCCF RECON,ioos:station:SCCF:51:1,2008-10-06T22:00:00Z,26.5545,-82.1715,1.884,7.11,1111122 
SCCF RECON,ioos:station:SCCF:51:1,2008-10-06T23:00:00Z,26.5545,-82.1715,1.923,7.19,1111122 
SCCF RECON,ioos:station:SCCF:51:1,2008-10-07T00:00:00Z,26.5545,-82.1715,1.978,6.87,1111122 
SCCF RECON,ioos:station:SCCF:51:1,2008-10-07T01:00:00Z,26.5545,-82.1715,2.025,6.95,1111122 
SCCF RECON,ioos:station:SCCF:51:1,2008-10-07T02:00:00Z,26.5545,-82.1715,2.026,6.84,1111122 
SCCF RECON,ioos:station:SCCF:51:1,2008-10-07T03:00:00Z,26.5545,-82.1715,2.009,6.75,1111122 
SCCF RECON,ioos:station:SCCF:51:1,2008-10-07T04:00:00Z,26.5545,-82.1715,1.968,6.91,1111122 
SCCF RECON,ioos:station:SCCF:51:1,2008-10-07T05:00:00Z,26.5545,-82.1715,1.974,7.11,1111122 
SCCF RECON,ioos:station:SCCF:51:1,2008-10-07T06:00:00Z,26.5545,-82.1715,2.0,7.09,1111122 
SCCF RECON,ioos:station:SCCF:51:1,2008-10-07T07:00:00Z,26.5545,-82.1715,2.032,7.01,1111122 
SCCF RECON,ioos:station:SCCF:51:1,2008-10-07T08:00:00Z,26.5545,-82.1715,2.065,6.77,1111122 
SCCF RECON,ioos:station:SCCF:51:1,2008-10-07T09:00:00Z,26.5545,-82.1715,2.111,6.16,1111122 
SCCF RECON,ioos:station:SCCF:51:1,2008-10-07T10:00:00Z,26.5545,-82.1715,2.104,5.59,1111122 
SCCF RECON,ioos:station:SCCF:51:1,2008-10-07T11:00:00Z,26.5545,-82.1715,2.059,5.98,1111122 
SCCF RECON,ioos:station:SCCF:51:1,2008-10-07T12:00:00Z,26.5545,-82.1715,1.999,6.08,1111122 
SCCF RECON,ioos:station:SCCF:51:1,2008-10-07T13:00:00Z,26.5545,-82.1715,1.938,6.23,1111122 
SCCF RECON,ioos:station:SCCF:51:1,2008-10-07T14:00:00Z,26.5545,-82.1715,1.87,6.53,1111122 
SCCF RECON,ioos:station:SCCF:51:1,2008-10-07T15:00:00Z,26.5545,-82.1715,1.792,6.48,1111122 
SCCF RECON,ioos:station:SCCF:51:1,2008-10-07T16:00:00Z,26.5545,-82.1715,1.719,6.89,1111122 
SCCF RECON,ioos:station:SCCF:51:1,2008-10-07T17:00:00Z,26.5545,-82.1715,1.647,7.36,1111122 
SCCF RECON,ioos:station:SCCF:51:1,2008-10-07T18:00:00Z,26.5545,-82.1715,1.587,7.73,1111122 
SCCF RECON,ioos:station:SCCF:51:1,2008-10-07T19:00:00Z,26.5545,-82.1715,1.58,8.02,1111122 
SCCF RECON,ioos:station:SCCF:51:1,2008-10-07T20:00:00Z,26.5545,-82.1715,1.616,8.13,1111122 
SCCF RECON,ioos:station:SCCF:51:1,2008-10-07T21:00:00Z,26.5545,-82.1715,1.685,8.22,1111122 
SCCF RECON,ioos:station:SCCF:51:1,2008-10-07T22:00:00Z,26.5545,-82.1715,1.776,5.45,1111122 
SCCF RECON,ioos:station:SCCF:51:1,2008-10-07T23:00:00Z,26.5545,-82.1715,1.855,7.54,1111122 
SCCF RECON,ioos:station:SCCF:51:1,2008-10-08T00:00:00Z,26.5545,-82.1715,1.924,5.94,1111122 
SCCF RECON,ioos:station:SCCF:51:1,2008-10-08T01:00:00Z,26.5545,-82.1715,1.97,5.8,1111122 
SCCF RECON,ioos:station:SCCF:51:1,2008-10-08T02:00:00Z,26.5545,-82.1715,1.992,5.55,1111122 
SCCF RECON,ioos:station:SCCF:51:1,2008-10-08T03:00:00Z,26.5545,-82.1715,1.997,6.24,1111122 
SCCF RECON,ioos:station:SCCF:51:1,2008-10-08T04:00:00Z,26.5545,-82.1715,1.996,6.43,1111122 
SCCF RECON,ioos:station:SCCF:51:1,2008-10-08T05:00:00Z,26.5545,-82.1715,1.992,6.81,1111122 
SCCF RECON,ioos:station:SCCF:51:1,2008-10-08T06:00:00Z,26.5545,-82.1715,1.998,6.93,1111122 
SCCF RECON,ioos:station:SCCF:51:1,2008-10-08T07:00:00Z,26.5545,-82.1715,2.01,6.42,1111122 
SCCF RECON,ioos:station:SCCF:51:1,2008-10-08T08:00:00Z,26.5545,-82.1715,2.042,6.66,1111122 
SCCF RECON,ioos:station:SCCF:51:1,2008-10-08T09:00:00Z,26.5545,-82.1715,2.082,6.72,1111122 
SCCF RECON,ioos:station:SCCF:51:1,2008-10-08T10:00:00Z,26.5545,-82.1715,2.13,5.06,1111122 
SCCF RECON,ioos:station:SCCF:51:1,2008-10-08T11:00:00Z,26.5545,-82.1715,2.139,4.73,1111122 
SCCF RECON,ioos:station:SCCF:51:1,2008-10-08T12:00:00Z,26.5545,-82.1715,2.12,4.13,1111122 
SCCF RECON,ioos:station:SCCF:51:1,2008-10-08T13:00:00Z,26.5545,-82.1715,2.089,3.87,1111122 
SCCF RECON,ioos:station:SCCF:51:1,2008-10-08T14:00:00Z,26.5545,-82.1715,2.04,5.85,1111122 
SCCF RECON,ioos:station:SCCF:51:1,2008-10-08T15:00:00Z,26.5545,-82.1715,1.972,5.83,1111122 
SCCF RECON,ioos:station:SCCF:51:1,2008-10-08T16:00:00Z,26.5545,-82.1715,1.899,6.04,1111122 
SCCF RECON,ioos:station:SCCF:51:1,2008-10-08T17:00:00Z,26.5545,-82.1715,1.799,5.64,1111122 
SCCF RECON,ioos:station:SCCF:51:1,2008-10-08T18:00:00Z,26.5545,-82.1715,1.713,5.98,1111122 
SCCF RECON,ioos:station:SCCF:51:1,2008-10-08T19:00:00Z,26.5545,-82.1715,1.646,5.28,1111122 
SCCF RECON,ioos:station:SCCF:51:1,2008-10-08T20:00:00Z,26.5545,-82.1715,1.629,5.52,1111122 
SCCF RECON,ioos:station:SCCF:51:1,2008-10-08T21:00:00Z,26.5545,-82.1715,1.671,6.03,1111122 
SCCF RECON,ioos:station:SCCF:51:1,2008-10-08T22:00:00Z,26.5545,-82.1715,1.737,7.64,1111122 
SCCF RECON,ioos:station:SCCF:51:1,2008-10-08T23:00:00Z,26.5545,-82.1715,1.814,7.42,1111122 
SCCF RECON,ioos:station:SCCF:51:1,2008-10-09T00:00:00Z,26.5545,-82.1715,1.885,6.82,1111122 
SCCF RECON,ioos:station:SCCF:51:1,2008-10-09T01:00:00Z,26.5545,-82.1715,1.96,4.9,1111122 
SCCF RECON,ioos:station:SCCF:51:1,2008-10-09T02:00:00Z,26.5545,-82.1715,2.03,6.33,1111122 
SCCF RECON,ioos:station:SCCF:51:1,2008-10-09T03:00:00Z,26.5545,-82.1715,2.08,6.44,1111122 
SCCF RECON,ioos:station:SCCF:51:1,2008-10-09T04:00:00Z,26.5545,-82.1715,2.08,6.7,1111122 
SCCF RECON,ioos:station:SCCF:51:1,2008-10-09T05:00:00Z,26.5545,-82.1715,2.04,6.53,1111122 
SCCF RECON,ioos:station:SCCF:51:1,2008-10-09T06:00:00Z,26.5545,-82.1715,2.01,6.35,1111122 
SCCF RECON,ioos:station:SCCF:51:1,2008-10-09T07:00:00Z,26.5545,-82.1715,1.962,5.86,1111122 
SCCF RECON,ioos:station:SCCF:51:1,2008-10-09T08:00:00Z,26.5545,-82.1715,1.94,6.6,1111122 
SCCF RECON,ioos:station:SCCF:51:1,2008-10-09T09:00:00Z,26.5545,-82.1715,1.971,6.9,1111122 
SCCF RECON,ioos:station:SCCF:51:1,2008-10-09T10:00:00Z,26.5545,-82.1715,2.031,7.0,1111122 
SCCF RECON,ioos:station:SCCF:51:1,2008-10-09T11:00:00Z,26.5545,-82.1715,2.09,5.94,1111122 
SCCF RECON,ioos:station:SCCF:51:1,2008-10-09T12:00:00Z,26.5545,-82.1715,2.121,5.52,1111122 
SCCF RECON,ioos:station:SCCF:51:1,2008-10-09T13:00:00Z,26.5545,-82.1715,2.13,5.58,1111122 
SCCF RECON,ioos:station:SCCF:51:1,2008-10-09T14:00:00Z,26.5545,-82.1715,2.105,5.23,1111122 
SCCF RECON,ioos:station:SCCF:51:1,2008-10-09T15:00:00Z,26.5545,-82.1715,2.06,5.74,1111122 
SCCF RECON,ioos:station:SCCF:51:1,2008-10-09T16:00:00Z,26.5545,-82.1715,1.994,6.03,1111122 
SCCF RECON,ioos:station:SCCF:51:1,2008-10-09T17:00:00Z,26.5545,-82.1715,1.919,6.03,1111122 
SCCF RECON,ioos:station:SCCF:51:1,2008-10-09T19:00:00Z,26.5545,-82.1715,1.721,5.38,1111122 
SCCF RECON,ioos:station:SCCF:51:1,2008-10-09T20:00:00Z,26.5545,-82.1715,1.645,5.27,1111122 
SCCF RECON,ioos:station:SCCF:51:1,2008-10-09T21:00:00Z,26.5545,-82.1715,1.631,6.51,1111122 
SCCF RECON,ioos:station:SCCF:51:1,2008-10-09T22:00:00Z,26.5545,-82.1715,1.677,8.37,1111122 
SCCF RECON,ioos:station:SCCF:51:1,2008-10-09T23:00:00Z,26.5545,-82.1715,1.76,8.41,1111122 
SCCF RECON,ioos:station:SCCF:51:1,2008-10-10T00:00:00Z,26.5545,-82.1715,1.86,6.98,1111122 
SCCF RECON,ioos:station:SCCF:51:1,2008-10-10T01:00:00Z,26.5545,-82.1715,1.97,6.75,1111122 
SCCF RECON,ioos:station:SCCF:51:1,2008-10-10T02:00:00Z,26.5545,-82.1715,2.04,6.47,1111122 
SCCF RECON,ioos:station:SCCF:51:1,2008-10-10T03:00:00Z,26.5545,-82.1715,2.081,6.33,1111122 
SCCF RECON,ioos:station:SCCF:51:1,2008-10-10T04:00:00Z,26.5545,-82.1715,2.07,6.14,1111122 
SCCF RECON,ioos:station:SCCF:51:1,2008-10-10T05:00:00Z,26.5545,-82.1715,2.03,6.0,1111122 
SCCF RECON,ioos:station:SCCF:51:1,2008-10-10T06:00:00Z,26.5545,-82.1715,1.98,5.93,1111122 
SCCF RECON,ioos:station:SCCF:51:1,2008-10-10T07:00:00Z,26.5545,-82.1715,1.93,5.95,1111122 
SCCF RECON,ioos:station:SCCF:51:1,2008-10-10T08:00:00Z,26.5545,-82.1715,1.89,6.17,1111122 
SCCF RECON,ioos:station:SCCF:51:1,2008-10-10T09:00:00Z,26.5545,-82.1715,1.88,6.3,1111122 
SCCF RECON,ioos:station:SCCF:51:1,2008-10-10T10:00:00Z,26.5545,-82.1715,1.92,6.63,1111122 
SCCF RECON,ioos:station:SCCF:51:1,2008-10-10T11:00:00Z,26.5545,-82.1715,1.988,7.0,1111122 
SCCF RECON,ioos:station:SCCF:51:1,2008-10-10T12:00:00Z,26.5545,-82.1715,2.06,5.62,1111122 
SCCF RECON,ioos:station:SCCF:51:1,2008-10-10T13:00:00Z,26.5545,-82.1715,2.104,5.23,1111122 
SCCF RECON,ioos:station:SCCF:51:1,2008-10-10T14:00:00Z,26.5545,-82.1715,2.123,5.43,1111122 
SCCF RECON,ioos:station:SCCF:51:1,2008-10-10T15:00:00Z,26.5545,-82.1715,2.09,5.27,1111122 
SCCF RECON,ioos:station:SCCF:51:1,2008-10-10T16:00:00Z,26.5545,-82.1715,2.029,5.76,1111122 
SCCF RECON,ioos:station:SCCF:51:1,2008-10-10T17:00:00Z,26.5545,-82.1715,1.948,6.55,1111122 
SCCF RECON,ioos:station:SCCF:51:1,2008-10-10T18:00:00Z,26.5545,-82.1715,1.854,6.76,1111122 
SCCF RECON,ioos:station:SCCF:51:1,2008-10-10T19:00:00Z,26.5545,-82.1715,1.746,6.8,1111122 
SCCF RECON,ioos:station:SCCF:51:1,2008-10-10T20:00:00Z,26.5545,-82.1715,1.648,5.62,1111122 
SCCF RECON,ioos:station:SCCF:51:1,2008-10-10T21:00:00Z,26.5545,-82.1715,1.586,5.66,1111122 
SCCF RECON,ioos:station:SCCF:51:1,2008-10-10T22:00:00Z,26.5545,-82.1715,1.599,5.29,1111122 
SCCF RECON,ioos:station:SCCF:51:1,2008-10-10T23:00:00Z,26.5545,-82.1715,1.66,9.67,1111122 
SCCF RECON,ioos:station:SCCF:51:1,2008-10-11T00:00:00Z,26.5545,-82.1715,1.76,7.39,1111122 
SCCF RECON,ioos:station:SCCF:51:1,2008-10-11T01:00:00Z,26.5545,-82.1715,1.886,6.68,1111122 
SCCF RECON,ioos:station:SCCF:51:1,2008-10-11T02:00:00Z,26.5545,-82.1715,1.98,6.29,1111122 
SCCF RECON,ioos:station:SCCF:51:1,2008-10-11T03:00:00Z,26.5545,-82.1715,2.031,6.64,1111122 
SCCF RECON,ioos:station:SCCF:51:1,2008-10-11T04:00:00Z,26.5545,-82.1715,2.057,6.25,1111122 
SCCF RECON,ioos:station:SCCF:51:1,2008-10-11T05:00:00Z,26.5545,-82.1715,2.038,7.06,1111122 
SCCF RECON,ioos:station:SCCF:51:1,2008-10-11T06:00:00Z,26.5545,-82.1715,1.97,7.54,1111122 
SCCF RECON,ioos:station:SCCF:51:1,2008-10-11T07:00:00Z,26.5545,-82.1715,1.877,6.38,1111122 
SCCF RECON,ioos:station:SCCF:51:1,2008-10-11T08:00:00Z,26.5545,-82.1715,1.78,7.39,1111122 
SCCF RECON,ioos:station:SCCF:51:1,2008-10-11T09:00:00Z,26.5545,-82.1715,1.745,7.43,1111122 
SCCF RECON,ioos:station:SCCF:51:1,2008-10-11T10:00:00Z,26.5545,-82.1715,1.777,7.21,1111122 
SCCF RECON,ioos:station:SCCF:51:1,2008-10-11T11:00:00Z,26.5545,-82.1715,1.842,7.08,1111122 
SCCF RECON,ioos:station:SCCF:51:1,2008-10-11T12:00:00Z,26.5545,-82.1715,1.925,6.27,1111122 
SCCF RECON,ioos:station:SCCF:51:1,2008-10-11T13:00:00Z,26.5545,-82.1715,2.027,5.25,1111122 
SCCF RECON,ioos:station:SCCF:51:1,2008-10-11T14:00:00Z,26.5545,-82.1715,2.112,5.2,1111122 
SCCF RECON,ioos:station:SCCF:51:1,2008-10-11T15:00:00Z,26.5545,-82.1715,2.135,5.32,1111122 
SCCF RECON,ioos:station:SCCF:51:1,2008-10-11T16:00:00Z,26.5545,-82.1715,2.104,5.73,1111122 
SCCF RECON,ioos:station:SCCF:51:1,2008-10-11T17:00:00Z,26.5545,-82.1715,2.027,5.94,1111122 
SCCF RECON,ioos:station:SCCF:51:1,2008-10-11T18:00:00Z,26.5545,-82.1715,1.933,6.97,1111122 
SCCF RECON,ioos:station:SCCF:51:1,2008-10-11T19:00:00Z,26.5545,-82.1715,1.827,7.21,1111122 
SCCF RECON,ioos:station:SCCF:51:1,2008-10-11T20:00:00Z,26.5545,-82.1715,1.714,7.41,1111122 